User: anonymous   Login
Location: Unspecified
(0.0000°N, 0.0000°E)
Time: 09:19:32
(UTC+01:00)
Language:

YAOGAN 3 - Orbit

View from above orbital plane
View from above orbital plane
View from above satellite
View from above satellite

Ground track
Ground track

The orbit data is extracted from the following two-line orbital elements,

1 32289U 07055A   14304.83016736  .00001728  00000-0  22397-3 0  7304
2 32289 097.9489 295.7740 0001303 094.7828 265.3516 14.82087508376761
Epoch (UTC): 31 October 2014 19:55:26
Eccentricity: 0.0001303
inclination: 97.9489°
perigee height: 622 km
apogee height: 623 km
right ascension of ascending node: 295.7740°
argument of perigee: 94.7828°
revolutions per day: 14.82087508
mean anomaly at epoch: 265.3516°
orbit number at epoch: 37676

The dashed part of the orbit path shows where the satellite is in the earth's shadow,  

DLR